Back to race calendar

Wistow 10k, nr. Selby, North Yorkshire

30th October 2016

Results courtesy of Dave Kellett for Selby Striders
(This is a sortable table - click column heading)
Filter (choose one only!)
Surname:
Cat: Club:
PosNumForenameSurnameCatClubTime
1119JohnHobbsMS 00:32:10
292IanFisherM40 00:34:06
3188FrancoPardiniMS 00:34:13
4168AndyMayM40Valley Striders AC00:34:31
5114Richard ThomasHerringtonMS 00:34:36
6187RavPanesarMS 00:34:38
719PhilBattyMS 00:34:43
8285ChrisWellsM40 00:35:03
9198RichardPattinsonM50 00:35:11
1097PaulGidlowM40 00:35:37
11299JamesYoungMS 00:36:12
1271AlastairDa CostaM50Unattached00:36:48
13260DanTateMS 00:37:00
14112JonathanHeaneyM40 00:37:01
15277Chris WaiteM40 00:37:05
16136LeeKaznowskiMS 00:37:16
17275RobertVincentM40 00:37:24
1815SteveBarberMS 00:37:52
19291LukeWilsonM40 00:37:55
20203MartinPlaceM50 00:38:01
21106RobertGrayM50Wetherby Runners AC00:38:11
22254NeilStrangeM50 00:38:37
239JamesAtkinsMS 00:38:41
2494AndyForsythM50Askern Drc00:38:43
25120AndyHolladayM40 00:38:51
26163StephenMaddisonM40 00:38:54
27253PaulStockburnM50 00:38:55
2831AntonyBradfordM50 00:38:59
2953TrevorCloughM50Leeds City Athletic Club00:39:03
30143MarwanKhoueiryM40Wakefield Harriers AC00:39:42
31259NicTateMSUnattached00:39:50
32169JohnMccarthyM50 00:39:51
33292Nicholas MarkWilsonM50 00:39:58
34189AndrewwParkinM40 00:40:03
35176ChrisMurphyMS 00:40:09
36181DerekOliverM50 00:40:10
3764GaryCooperM40 00:40:33
38295CraigWorleyM40 00:40:36
3943DarrenCartwrightM40Unattached00:40:59
40142JacquiKhoueiryF40Wakefield Harriers AC00:41:07
41217JoeRestellM40Askern & District RC00:41:08
42239DarrenSennettM40 00:41:10
43165RobertMarshM40Valley Striders00:41:32
4418AdriannBastowM40 00:41:50
45276MichaelVinegradMS 00:41:53
4674CraigDavidsonMS 00:42:15
47294DavidWomersleyM60 00:42:19
48129Howard JeffreyM60Otley AC00:42:41
49196AdamPartonM40 00:42:45
5080MarkDelaneyM50 00:42:49
51221KarlRobertsMS 00:43:08
52197AngelaPattinsonF40 00:43:24
5387ChrisDugherM40Selby Striders00:43:35
54137PaulKellyM50 00:43:54
5582KathrynDickinsonF50 00:43:55
56213KellyRavenFS 00:44:07
5791DeanFieldingMS 00:44:21
58159Martin JohnLuxtonM60 00:44:24
59209MikePullonM50 00:44:30
60298NaomiYouelF40 00:44:31
6168AmeliaCrossanF40 00:44:35
61195JamesParryM40 00:44:35
63123RichardHornerM40 00:44:37
64179JamesNundyMS 00:44:42
65151LeeLockwoodMS 00:44:45
66234StevenScanlonM40 00:44:48
6729JonathannBoylM40 00:44:49
68144MundyKilnerFS 00:44:58
69270AndyTrotterM40 00:45:02
70127ChristopherInmanM60 00:45:03
712JasonAlbrechtMS 00:45:10
7284ErwinDorlandM50York Acorn Running Club00:45:11
7369AndyCullenM40 00:45:16
74296MattWorsmanMS 00:45:18
75194KarenParryF40 00:45:24
7647KevinChippendaleM60 00:45:27
7776DanielleDawsonFS 00:45:41
78172GarryMcmasterMS 00:45:42
79257MarkSwindenM60 00:45:51
80184KeithPailingM60 00:46:04
813WillAllanM60 00:46:08
82279DavidWaiteM50 00:46:11
83152GeoffLodgeM50 00:46:13
84290JamesWilliamsonMS 00:46:30
85238LauraSchofieldFS 00:46:41
8672MikeDalesM50 00:46:45
875ChrisAllenM40Scarborough Athletic Club00:47:02
88288JakeWildMS 00:47:03
89263PeterThomasM50 00:47:12
90135DonnaKaznowskiFS 00:47:13
9170LauraCummingsFSHyde Park Harriers00:47:25
92113RogerHeathM40 00:47:32
93229TonyRuddockM50 00:47:36
94273AdrianTurnerM40 00:47:40
95131MattJohnsonM50 00:47:48
9637PaulaBrookFS 00:48:04
97192DavidParryM50 00:48:05
9830JamieeBrackMS 00:48:06
99228MattRowleyMS 00:48:07
100214MarkRavenM50York Knavesmire Harriers00:48:12
10166MickCoyleM40 00:48:13
10290EmmaEvansFS 00:48:20
103268MichaelTinkerM60Valley Striders00:48:34
104227PeterRowleyM60 00:48:45
105162PeterLythM50York Knavesmire Harriers00:48:51
106155SimonLordM60 00:48:54
107166AlanMarshallM50 00:48:59
108232ElizabethSandellFS 00:49:06
10941AndyButcherM50 00:49:13
110278DianeWaiteF50 00:49:17
111158SamLowMS 00:49:20
11227DebbieBlandF60Baildon Runners00:49:21
113231Danny SampsonM40York Triathlon Club00:49:27
114271EmmaTuneFS 00:49:32
11532Sue BradfordF40Tadcaster Harriers00:49:34
115164FionaMansonF40 00:49:34
11738DavidBrooksbankM50 00:49:35
118175RebeccaMoylettFS 00:49:49
119149LaurenceLennonM50 00:49:59
120251TylerStarksMS 00:50:08
12199DarrenGillM40 00:50:15
122138ElaineKellyF50Wakefield Triathlon Club00:50:26
123121JoanneHollandF40 00:50:37
124118JoeHirdMS 00:50:48
12511KarenBaildonF40 00:50:52
12578TonyyDeaconM40 00:50:52
127237JoeSchofieldMS 00:50:55
127218JonRiceM40 00:50:55
129297TraceyYarsleyF40 00:50:56
129266FayeThorntonFS 00:50:56
129283VickyWebbF40 00:50:56
132236JonathanSchofieldMS 00:50:58
133244AlisonSmithF40Abbey Runners00:51:11
134269AlanTonksM50 00:51:17
135219DeanRichardsonM40 00:51:19
136252NeilSteadM50 00:51:20
137191RosalindParrF40 00:51:22
138262AlexanderThomasMS 00:51:24
13954SueCoatesF60 00:51:27
140284AmandaWelburn-smithF40 00:51:47
14198KellyGillF40 00:52:11
142185Richard PailingMS 00:52:23
14352HelenClarkFS 00:52:40
144126HollyIllingworthFS 00:52:46
145150RikkiLentonMS 00:52:48
146240PennySettleF40Unattached00:52:54
14795PeterrFoxM40 00:53:07
14822AngiBensonF50Ripon Runners00:53:16
149201TaraPhillipsF40 00:53:17
150178LucyNowlinFS 00:53:18
151242SarahSkittF40 00:53:30
152246MartinSmithM50 00:53:39
153282CatherineWarrenF50 00:53:43
154133PhilJohnsonM40 00:53:44
155141HayleyKennyF40 00:53:49
156200GeoffreyyPerigoM50 00:53:50
157125JonHuberyM40 00:53:56
15824IanBickerdikeM60 00:53:58
15981GuyDethridgeM50 00:54:05
16086EmmaDrakeF40 00:54:06
161117DerekHindleM50 00:54:07
16279PhilDeanM40 00:54:10
163170CharlesMcdonaldM40 00:54:15
164245LouiseSmithFS 00:54:20
165139ShaunKellyMS 00:54:33
166222JulieRobertsF40 00:54:34
16757LauraCollinsFS 00:54:35
168212SallyRatcliffeF40 00:54:37
169104KeithGrahamM50 00:54:45
170147JaneLawsonF50 00:54:49
17134GaynorBrennanF40 00:54:58
1726GrahamArgentM50Yorkshire Vikings Triathlon00:55:25
173265StephenThorneMS 00:55:36
17426KarlBlackburnM40 00:56:03
17525CassyBlackburnF40 00:56:05
176202KathrynPinchbeckF50Wold Veteran00:56:25
177109KatyHargreavesF40 00:56:30
178102ClaireGoughF40 00:56:31
17948GillChippendaleF60 00:56:35
18045MartinCharltonMS 00:56:43
181156MichaelaLoveFS 00:57:07
181204EmmaPlaceFS 00:57:07
183193AnnParryF40 00:57:33
18483ChrisDorganM50 00:57:57
1851SteveAirthM40 00:58:02
18620EricaBellFS 00:58:10
187247MartynSmithsonM40 00:58:12
188130JodieJessopFS 00:58:16
18967CiaraCrossanFS 00:58:25
190225JemmaRoeFS 00:58:32
191235JasonSchmidtM40 00:58:36
192154RichardLordM40 00:58:37
19360RoyCooleyM60 00:58:44
19412DeniseBaileyF50 00:59:11
19465PeterCoxM60Unattached00:59:11
196216AdeleRedshawFS 00:59:14
19740MelvynBurtonM60Unattached00:59:22
198153HannahLongF40 00:59:37
199183JoanneOwensF40 00:59:41
200116MichaelHillM60Rotherham Harriers & AC00:59:56
20185JulieDownesF50 00:59:57
202177KellyNicholsonFS 01:00:33
20217KenBarberM60Askern & District RC01:00:33
204145JadeLambFS 01:00:53
205215GeraldineRayF50 01:01:27
206220LouiseRobertsF40 01:01:51
20762ThomasCoomberMS 01:02:02
208115JemmaHerringtonFS 01:02:04
20946NikkiChesterFS 01:02:05
20913LisaBallantineFS 01:02:05
21158JoanneConroyFS 01:02:08
211111HayleyHawthorneFSUnattached01:02:08
213230NeilRussellM60Baildon Runners01:02:21
214161SamanthaLythF50York Knavesmire Harriers01:02:23
21535PaulBrockbankM40 01:02:25
216272NicolaTurnerF40 01:02:27
217128LisaJamesF40 01:02:43
218281SusannaWaltersFS 01:03:01
219132KateJohnsonF50 01:03:13
22039CarolineBurdenFS 01:03:30
22161AnneCooleyF60 01:03:38
222241ArchieSissonsM50 01:03:40
22351VictoriaClampFS 01:04:15
224280SueWalkerF40 01:04:33
225207DorothyPullmanF50 01:05:12
226226MartinRooneyM40 01:05:13
227173JoanneMilsomF40 01:05:34
22896SueGallagherF50 01:06:17
229205HannahPollitFS 01:06:56
23042AlisonButcherF50 01:06:57
23063ClareCooperF40 01:06:57
23273JenniferDaveyFS 01:07:28
23316JenniferBarberF60Askern & District RC01:07:52
23456IanCodlingM60Thirsk & Sowerby Harriers01:07:53
23577JoDayF50 01:08:13
236160JenniferLynnF40 01:08:36
236146SaraLamperF50 01:08:36
238261Sarah-janeTemplemanF40 01:09:28
239110KimberlyHarveyF40 01:09:46
240256UrsulaSwiftF40 01:09:56
241167IannMartinM40 01:11:13
241171AmandaMcinnesF40 01:11:13
243182SarahOliverF40 01:11:50
244274JudithVan Den BergFS 01:12:13
2457AmandaAstburyF40 01:14:04
24521JaneBennettF40 01:14:04
245287LesleyWhiteF50 01:14:04
248248NickySmithsonF40 01:14:15
249122AlisonHolmesF40 01:16:35
25055MarianCodlingF60 01:20:39
Back to year index - Top of page